ソーホー彗星

342P/SOHO (2027)

English version
Home page
Updated on January 4, 2023

---------------------------------------------------------------------

・ プロフィール

・ 軌道要素

Epoch 2021 Nov. 2.0 TT = JDT 2459520.5
T 2021 Oct. 19.42553 TT                                 MPCW
q   0.0524344            (2000.0)            P               Q
n   0.18568680     Peri.   73.26581     -0.18112690     -0.97895565
a   3.0428604      Node    27.70594     +0.80761266     -0.20261124
e   0.9827681      Incl.   11.66636     +0.56120837     -0.02438274
P   5.31
From 182 observations 2011 Mar. 9-2016 July 2.  Nongravitational parameters
     A1 = +0.00, A2 = +0.0015.

・ 星図

・ 光度変化

        m1 = 17 + 5 logΔ + 10 log r

---------------------------------------------------------------------

軌道要素はM.P.E.C. 2016-P77に掲載されたものです。
星図はステラナビゲータ Ver.10 (アストロアーツ) で作成したものです。
光度グラフはComet for Windowsで作成したものです。

---------------------------------------------------------------------

Copyright(C) Seiichi Yoshida (comet@aerith.net). All rights reserved.